Regional Weather Roundup
Issued by NWS

Home | Current Version | Previous Version | Text Only | Print | Product List | Glossary Off
Versions: 1 2 3 4 5 6 7 8 9 10 11 12 13 14 15 16 17 18 19 20 21 22 23 24 25 26 27 28 29 30 31 32 33 34 35 36 37 38 39 40 41 42 43 44 45 46 47 48 49 50

000
ASUS45 KABQ 271410
RWRNM
NEW MEXICO REGIONAL WEATHER ROUNDUP
NATIONAL WEATHER SERVICE ALBUQUERQUE NM
800 AM MDT FRI MAY 27 2016

NOTE: "FAIR" MEANS FEW OR NO CLOUDS BELOW 12,000 FEET AGL WITH NO
       SIGNIFICANT WEATHER OR OBSTRUCTIONS TO VISION.

      THIS PRODUCT IS RELEASED AS TWO VERSIONS.  ONE VERSION NEAR
      THE TOP OF THE HOUR CONTAINING PRELIMINARY DATA FROM ALBUQUERQUE
      AND OTHER STATIONS.  A FINAL VERSION WITH ADDITIONAL DATA IS
      ISSUED ABOUT 10 MINUTES AFTER THE HOUR.

NMZ501-503-504-510>518-271500-
NORTHWEST PLATEAU/NORTHCENTRAL MOUNTAINS

CITY           SKY/WX    TMP DP  RH WIND       PRES   REMARKS
FARMINGTON     FAIR      52  32  46 W12       29.94R
LOS ALAMOS     FAIR      46  34  62 NE6       29.99R
SANTA FE       FAIR      54  32  43 N10       29.95R
TAOS           FAIR      46  30  53 N6        29.98R
ANGEL FIRE     FAIR      39  32  75 W15       29.99R WCI  31

$$
NMZ402-403-502-505>509-271500-
WESTCENTRAL MOUNTAINS/SOUTHWEST MOUNTAINS

CITY           SKY/WX    TMP DP  RH WIND       PRES   REMARKS
GALLUP         FAIR      48  31  51 W5        30.03R
GRANTS         FAIR      50  30  45 N5        30.02R
SILVER CITY      N/A     55  25  30 NW9       30.04R

$$
NMZ407-409-411-412-271500-
SOUTHERN DESERTS

CITY           SKY/WX    TMP DP  RH WIND       PRES   REMARKS
LORDSBURG      FAIR      57  25  28 CALM      30.00R
DEMING         FAIR      58  25  28 W8        29.98S
LAS CRUCES     FAIR      58  23  25 W12       29.98S
HOLLOMAN AFB   FAIR      58  20  22 SE1       29.94R
ALAMOGORDO     FAIR      59  19  21 S6        29.95R
T OR C         FAIR      60  27  28 NW8       29.98R

$$
NMZ519>523-271500-
CENTRAL VALLEYS/CENTRAL HIGHLANDS

CITY           SKY/WX    TMP DP  RH WIND       PRES   REMARKS
ALBUQUERQUE    FAIR      52  27  38 S7        29.97R
DOUBLE EAGLE   PTSUNNY   48  28  46 VRB5      29.98R
MORIARTY ARPT  FAIR      55  26  32 W20G25    29.96S
CLINES CORNERS FAIR      47  26  44 W21       29.94R
BELEN          FAIR      58  28  32 W7        29.96R
SOCORRO        FAIR      63  29  27 NW8       29.95S

$$
NMZ524>526-539-540-271500-
SOUTHCENTRAL MOUNTAINS

CITY           SKY/WX    TMP DP  RH WIND       PRES   REMARKS
RUIDOSO          N/A     54  25  32 NW15G23   30.02R

$$
NMZ527>531-271500-
NORTHEAST HIGHLANDS/NORTHEAST PLAINS

CITY           SKY/WX    TMP DP  RH WIND       PRES   REMARKS
LAS VEGAS      PTSUNNY   48  25  40 SE8       29.92R
RATON          LGT RAIN  46  38  73 CALM      29.90R
CLAYTON        FAIR      56  40  55 NW17      29.83S

$$
NMZ532>537-271500-
EASTCENTRAL PLAINS

CITY           SKY/WX    TMP DP  RH WIND       PRES   REMARKS
TUCUMCARI      FAIR      57  38  48 VRB3      29.85R
CANNON AFB     FAIR      57  38  48 NW6       29.87R
CLOVIS AIRPORT FAIR      57  37  47 NW6       29.86R

$$
NMZ028-029-538-271500-
SOUTHEAST PLAINS

CITY           SKY/WX    TMP DP  RH WIND       PRES   REMARKS
ROSWELL        FAIR      62  24  23 CALM      29.88R
ARTESIA        FAIR      70  21  16 W13       29.89R
CARLSBAD       FAIR      68  17  14 N3        29.87R
HOBBS          SUNNY     64  21  19 NW9       29.90R


$$




USA.gov is the U.S. government's official web portal to all federal, state and local government web resources and services.